Location: Amon Carter Post Office
(32.8281°N, 97.0484°W)
Time: 02:18:39
(UTC+00:00)

Lacrosse 5 rocket - Pass Details

Date: 07 July 2022
Orbit: 456 x 628 km, 57.0° (Epoch: 09 August)

Event Time Altitude Azimuth Distance (km) Brightness Sun altitude
Rises 02:31:26 0° 318° (NW) 2,591 6.6 -10.1°
Reaches altitude 10° 02:33:33 10° 316° (NW) 1,732 5.4 -10.4°
Maximum altitude 02:37:26 67° 234° (SW) 579 1.5 -11.1°
Enters shadow 02:40:51 14° 153° (SSE) 1,559 3.1 -11.7°
